Location: Table Mountain
(47.2500°N, 120.5778°W)
Time: 10:17:08
(UTC-07:00)

Envisat - Pass Details

Date: 09 October 2017
Orbit: 764 x 766 km, 98.2° (Epoch: 22 October)

Event Time Altitude Azimuth Distance (km) Brightness Sun altitude
Exits shadow 20:24:53 41° 134° (SE) 1,098 3.4 -21.0°
Maximum altitude 20:26:30 63° 72° (ENE) 851 2.9 -21.3°
Drops below altitude 10° 20:31:31 10° 352° (N) 2,310 5.7 -22.1°
Sets 20:33:51 0° 349° (N) 3,240 6.6 -22.5°
